{"data":{"norad_id":81279,"epoch":"2026-05-24T02:28:03.146880Z","epoch_age_seconds":148708,"freshness":"FRESH","line1":"1 81279U          26144.10281420  .00000640  00000+0  25844-3 0  9997","line2":"2 81279  98.1043 195.3398 0204944 268.9071  88.8623 14.20344252485647","mean_motion":14.20344252,"eccentricity":0.0204944,"inclination_deg":98.1043,"raan_deg":195.3398,"arg_perigee_deg":268.9071,"mean_anomaly_deg":88.8623,"bstar":0.00025844,"rev_number":48564,"period_min":101.38387211215,"perigee_km":676.58144853507,"apogee_km":971.79614005221,"semimajor_km":7202.3257942936,"source":"CELESTRAK","updated_at":"2026-05-25T13:38:09.447782Z"}}